Weather History for Whiteman AFB, MO

Change the Weather History Date:

Friday, May 31, 2013

  Actual Average Record
Temperature  
Mean Temperature 69 °F -  
Max Temperature 78 °F 75 °F 91 °F (1998)
Min Temperature 60 °F 57 °F 50 °F (2001)
Cooling Degree Days 4    
Growing Degree Days 19 (Base 50)    
Moisture  
Dew Point 65 °F    
Average Humidity 99    
Maximum Humidity 100    
Minimum Humidity 83    
Precipitation  
Precipitation 1.83 in - - ()
Sea Level Pressure  
Sea Level Pressure 29.75 in    
Wind  
Wind Speed 10 mph (SSE)    
Max Wind Speed 25 mph    
Max Gust Speed 31 mph    
Visibility 9 miles    
Events Fog , Rain , Thunderstorm    
Averages and records for this station are not official NWS values.
T = Trace of Precipitation, MM = Missing Value Source: NWS Daily Summary

Daily Weather History Graph

Daily Weather History Graph

Search for Another Location

Airport:

Trip Planner

Search our weather history database for the weather conditions in past years. The results will help you decide how hot, cold, wet, or windy it might be!

Date:

Astronomy

May. 31, 2013 Rise Set
Actual Time 5:51 AM CDT 8:32 PM CDT
Civil Twilight 5:20 AM CDT 9:04 PM CDT
Nautical Twilight 4:41 AM CDT 9:43 PM CDT
Astronomical Twilight 3:57 AM CDT 10:27 PM CDT
Moon 1:10 AM CDT (5/31) 1:03 PM CDT (5/31)
Length of Visible Light 15h 43m
Length of Day
14h 41m
Waning Gibbous, 51% of the Moon is Illuminated
May 31
Waning Gibbous
May 31
Last Quarter
Jun 8
New
Jun 16
First Quarter
Jun 23
Full

Hourly Weather History & Observations

Time (CDT) Temp. Dew Point Humidity Pressure Visibility Wind Dir Wind Speed Gust Speed Precip Events Conditions
12:58 AM 62.6 °F 62.6 °F 100% 29.74 in 10.0 mi SSE 8.1 mph - N/A   Clear
1:58 AM 63.0 °F 63.0 °F 100% 29.75 in 10.0 mi South 5.8 mph - N/A   Clear
2:58 AM 62.6 °F 62.6 °F 100% 29.75 in 10.0 mi South 3.5 mph - N/A   Partly Cloudy
3:33 AM 64.4 °F 64.4 °F 100% 29.73 in 10.0 mi South 9.2 mph - N/A   Light Drizzle
3:58 AM 64.9 °F 64.9 °F 100% 29.73 in 5.0 mi South 9.2 mph - 0.02 in Rain , Thunderstorm Light Thunderstorms and Rain
4:11 AM 64.4 °F 64.4 °F 100% 29.73 in 10.0 mi South 4.6 mph - N/A Thunderstorm Mostly Cloudy
4:37 AM 64.4 °F 64.4 °F 100% 29.76 in 5.0 mi North 8.1 mph - N/A Rain , Thunderstorm Light Thunderstorms and Rain
4:58 AM 64.4 °F 64.4 °F 100% 29.75 in 10.0 mi Calm Calm - 0.13 in Thunderstorm Overcast
5:35 AM 64.4 °F 64.4 °F 100% 29.74 in 9.0 mi NE 6.9 mph - N/A Rain , Thunderstorm Light Thunderstorms and Rain
5:58 AM 62.8 °F 62.8 °F 100% 29.77 in 10.0 mi North 15.0 mph - 0.02 in Thunderstorm Mostly Cloudy
6:35 AM 62.6 °F 62.6 °F 100% 29.76 in 9.0 mi ENE 5.8 mph - N/A Rain , Thunderstorm Light Thunderstorms and Rain
6:58 AM 62.2 °F 62.2 °F 100% 29.77 in 10.0 mi NW 10.4 mph 26.5 mph 0.00 in Rain , Thunderstorm Light Thunderstorms and Rain
7:03 AM 62.6 °F 62.6 °F 100% 29.78 in 8.0 mi NNW 23.0 mph 27.6 mph N/A Rain , Thunderstorm Thunderstorms and Rain
7:08 AM 62.6 °F 62.6 °F 100% 29.83 in 0.8 mi NNW 25.3 mph 31.1 mph N/A Rain , Thunderstorm Heavy Thunderstorms and Rain
7:15 AM 60.8 °F 60.8 °F 100% 29.84 in 0.2 mi North 20.7 mph 31.1 mph N/A Fog , Rain , Thunderstorm Heavy Thunderstorms and Rain
7:21 AM 60.8 °F 60.8 °F 100% 29.87 in 0.2 mi NNE 16.1 mph 28.8 mph N/A Fog , Rain , Thunderstorm Heavy Thunderstorms and Rain
7:28 AM 60.8 °F 60.8 °F 100% 29.82 in 2.0 mi ENE 16.1 mph 25.3 mph N/A Rain , Thunderstorm Thunderstorms and Rain
7:45 AM 60.8 °F 60.8 °F 100% 29.77 in 4.0 mi ENE 20.7 mph 29.9 mph N/A Rain , Thunderstorm Light Thunderstorms and Rain
7:58 AM 61.3 °F 61.3 °F 100% 29.76 in 8.0 mi ENE 21.9 mph 29.9 mph 1.49 in Rain , Thunderstorm Light Thunderstorms and Rain
8:01 AM 60.8 °F 60.8 °F 100% 29.76 in 10.0 mi ENE 20.7 mph 29.9 mph N/A Rain , Thunderstorm Light Rain
8:58 AM 62.4 °F 62.4 °F 100% 29.75 in 10.0 mi East 12.7 mph - 0.01 in Rain Light Rain
9:16 AM 62.6 °F 62.6 °F 100% 29.77 in 10.0 mi ESE 10.4 mph 24.2 mph N/A   Mostly Cloudy
9:20 AM 62.6 °F 62.6 °F 100% 29.77 in 10.0 mi ESE 12.7 mph 24.2 mph N/A Rain Light Rain
9:58 AM 62.6 °F 62.6 °F 100% 29.78 in 10.0 mi SE 10.4 mph - 0.01 in   Overcast
10:04 AM 62.6 °F 62.6 °F 100% 29.78 in 10.0 mi ESE 10.4 mph - N/A   Light Drizzle
10:05 AM 62.6 °F 62.6 °F 100% 29.78 in 10.0 mi SE 9.2 mph - N/A   Overcast
10:37 AM 62.6 °F 62.6 °F 100% 29.77 in 10.0 mi SE 12.7 mph - N/A   Light Drizzle
10:42 AM 62.6 °F 62.6 °F 100% 29.76 in 10.0 mi East 15.0 mph - N/A   Overcast
10:58 AM 63.1 °F 63.1 °F 100% 29.76 in 10.0 mi SE 11.5 mph 19.6 mph 0.00 in Rain Light Rain Showers
11:08 AM 62.6 °F 62.6 °F 100% 29.77 in 10.0 mi SE 9.2 mph - N/A   Overcast
11:18 AM 62.6 °F 62.6 °F 100% 29.77 in 10.0 mi SE 9.2 mph - N/A   Light Drizzle
11:39 AM 64.4 °F 64.4 °F 100% 29.76 in 10.0 mi SE 10.4 mph - N/A   Overcast
11:58 AM 64.2 °F 64.2 °F 100% 29.76 in 10.0 mi ESE 8.1 mph - 0.01 in   Overcast
12:58 PM 70.3 °F 70.3 °F 100% 29.75 in 10.0 mi SSE 9.2 mph - N/A   Overcast
1:13 PM 71.6 °F 71.6 °F 100% 29.74 in 10.0 mi South 8.1 mph - N/A   Mostly Cloudy
1:58 PM 76.3 °F 75.6 °F 98% 29.73 in 10.0 mi SSW 9.2 mph - N/A   Mostly Cloudy
2:13 PM 75.2 °F 75.2 °F 100% 29.73 in 10.0 mi South 8.1 mph - N/A   Mostly Cloudy
2:17 PM 75.2 °F 75.2 °F 100% 29.72 in 6.0 mi South 9.2 mph - N/A Rain Light Rain Showers
2:54 PM 77.0 °F 77.0 °F 100% 29.70 in 10.0 mi SSE 5.8 mph - N/A Thunderstorm Mostly Cloudy
2:58 PM 77.4 °F 77.4 °F 100% 29.69 in 10.0 mi SSE 5.8 mph - 0.00 in Thunderstorm Mostly Cloudy
3:05 PM 78.8 °F 77.0 °F 94% 29.70 in 10.0 mi South 5.8 mph - N/A Thunderstorm Thunderstorm
3:27 PM 77.0 °F 71.6 °F 83% 29.69 in 10.0 mi South 4.6 mph - N/A   Mostly Cloudy
3:40 PM 75.2 °F 69.8 °F 83% 29.69 in 10.0 mi SSE 9.2 mph - N/A Thunderstorm Thunderstorm
3:42 PM 75.2 °F 69.8 °F 83% 29.69 in 6.0 mi SE 10.4 mph - N/A Rain , Thunderstorm Light Thunderstorms and Rain
3:44 PM 73.4 °F 68.0 °F 83% 29.70 in 10.0 mi SE 9.2 mph - N/A Rain , Thunderstorm Light Thunderstorms and Rain
3:58 PM 70.7 °F 67.6 °F 90% 29.72 in 8.0 mi South 9.2 mph - 0.00 in Rain , Thunderstorm Light Thunderstorms and Rain
4:06 PM 68.0 °F 68.0 °F 100% 29.70 in 5.0 mi Variable 2.3 mph - N/A Rain , Thunderstorm Light Thunderstorms and Rain
4:40 PM 64.4 °F 64.4 °F 100% 29.69 in 10.0 mi West 6.9 mph - N/A Thunderstorm Thunderstorm
4:43 PM 64.4 °F 64.4 °F 100% 29.69 in 10.0 mi WNW 8.1 mph - N/A Rain , Thunderstorm Light Rain
4:58 PM 65.1 °F 65.1 °F 100% 29.72 in 9.0 mi SE 15.0 mph - 0.07 in Rain , Thunderstorm Light Thunderstorms and Rain
5:06 PM 64.4 °F 64.4 °F 100% 29.74 in 10.0 mi SSE 6.9 mph - N/A Thunderstorm Thunderstorm
5:15 PM 64.4 °F 64.4 °F 100% 29.74 in 10.0 mi SSW 6.9 mph - N/A Rain , Thunderstorm Light Thunderstorms and Rain
5:58 PM 65.5 °F 65.5 °F 100% 29.73 in 10.0 mi SW 6.9 mph - 0.05 in Rain , Thunderstorm Light Rain
6:04 PM 66.2 °F 66.2 °F 100% 29.72 in 9.0 mi West 8.1 mph - N/A Rain , Thunderstorm Light Thunderstorms and Rain
6:24 PM 66.2 °F 66.2 °F 100% 29.71 in 10.0 mi SW 10.4 mph - N/A Rain , Thunderstorm Light Thunderstorms and Rain
6:58 PM 67.3 °F 67.3 °F 100% 29.67 in 10.0 mi NW 11.5 mph - 0.02 in   Light Drizzle
7:58 PM 66.4 °F 66.4 °F 100% 29.73 in 10.0 mi South 8.1 mph - 0.00 in   Partly Cloudy
8:58 PM 65.1 °F 65.1 °F 100% 29.74 in 10.0 mi South 5.8 mph - N/A   Mostly Cloudy
9:25 PM 64.4 °F 64.4 °F 100% 29.74 in 10.0 mi South 4.6 mph - N/A Thunderstorm Mostly Cloudy
9:43 PM 64.4 °F 64.4 °F 100% 29.75 in 10.0 mi South 4.6 mph - N/A   Mostly Cloudy
9:58 PM 64.6 °F 64.6 °F 100% 29.76 in 10.0 mi South 4.6 mph - N/A   Mostly Cloudy
10:58 PM 64.2 °F 64.2 °F 100% 29.78 in 10.0 mi SSW 16.1 mph - N/A   Scattered Clouds
11:58 PM 64.2 °F 64.2 °F 100% 29.77 in 10.0 mi SSW 6.9 mph - N/A   Clear